OBJECT K, 57175

Orbit data source: Space-Track

You're viewing an Uncataloged Satellite

Recently launched and/or uncataloged satellites may have evolving metadata. Metadata may include but not limited to: Owner, Maufacturer, Bus, Motor, and Mission.

OBJECT K, 57175 is a satellite in SSO that was launched on Tue, 27 Jun 2023 UTC via a SOYUZ-2-1B launch vehicle from the Vostochny Cosmodrome (VOSTO). Unknown objects in Earth's orbit typically refer to objects detected orbiting the Earth but have not yet been identified or cataloged. These objects could be anything from previously untracked satellites, spent rocket stages, debris from satellite collisions, or even natural meteoroids temporarily captured by Earth's gravity.

Loading next visibility...
Identifier
57175, 2023-091K
Orbit
SSO
Country
Flag of TBDTBD
Related business
Flag of BYBelarusian State University (BY)
Manufacturer
Belarus SU
Mission
Operational Amateur Communications
Bus & Motor
CUBESAT 3U, Unknown motor
Mass
4 kg wet, 4 kg dry
Launch date (UTC)
2023-06-27 (3 years ago)
Launch vehicle
SOYUZ-2-1B
Launch site
Vostochny Cosmodrome (VOSTO)
Object type
Unknown
Shape & HBR
Box, 0.1 m
Radar Cross Section
0.035 m², Medium (>0.1 m² and < 1m²)

Expand to show TLE details & history
Last TLE update: 7 hours ago

TLE from 7 hours ago
0 OBJECT K
1 57175U 23091K   26162.94861247  .00011345  00000-0  40438-3 0  9994
2 57175  97.5060 226.1188 0011193 130.5590 229.6626 15.29022733163502
Epoch: 2026-06-11T22:46Z
TLE epoch observation values (Epoch: 2026-06-11T22:46:00.117Z)
Latitude
-0.00002°
Longitude
-15.66677°
Altitude
486.806 km
Speed
7.619 km/s
True Right ascension
15h 04m 28s
True Declination
0° 00' 00"
Sunlit
Object was in full shadow at epoch
Visualization orbit readout
Latitude
Unknown
Longitude
Unknown
Altitude
Unknown
Speed
Unknown
Apparent Right ascension
Unknown
Apparent Declination
Unknown
Sunlit
N/A
Visualization observer readout
Local Sidereal Time
15:48:54
Azimuth
Unknown
Elevation
Unknown
Doppler factor
Unknown
Orbital elements
Apogee altitude
483.362 km
Perigee altitude
468.019 km
Semi-major axis
6,853.828 km
Eccentricity
0.00112
Inclination
97.506°
RAAN
226.1188°
Arg. of periapsis
130.559°
True anomaly
229.56492°
Mean anomaly
229.6626°
Eccentric anomaly
229.61375°
Mean motion
3.82511 °/min
Orbital period
94.12 mins
BSTAR
0.00040438
Loading maneuver chart data...
Computing Atmospheric mass density...
Loading historical data...
Loading historical data...
Loading historical data...
Loading historical data...
Loading historical data...
Loading historical data...
Loading historical data...

Documentation

Showing up to 5 results
|